Flag for Syria Weather past 2 weeks in Aleppo, Syria

Now
67 °F

Passing clouds.


Feels Like: 67 °F
Forecast: 50 / 65 °F
Wind: 14 mph from West

Location: Iskenderun

Current Time: Mar 30, 2015 at 1:10:23 PM

Latest Report: Mar 30, 2015 at 12:00 PM


Visibility: 9 mi

Pressure: 29.85 "Hg

Humidity: 55%

Dew point: 50 °F

Location of AleppoLocation

Historic Weather in Aleppo — Graph

°F

Aleppo temperature yesterday

Maximum temperature yesterday: 75 °F (at 2:00 PM)
Minimum temperature yesterday: 59 °F (at 6:00 AM)
Average temperature yesterday: 64 °F

Past Weeks' High & Low Weather Summary

 TemperatureHumidityPressure
High80 °F (Mar 28, 11:00 AM)90% (Mar 21, 3:00 AM)30.17 "Hg (Mar 21, 3:00 AM)
Low48 °F (Mar 22, 4:00 AM)16% (Mar 28, 11:00 AM)29.67 "Hg (Mar 29, 6:00 PM)
Average61 °F54%29.98 "Hg
* Reported Mar 15 10:00 AM — Mar 30 11:00 AM, Aleppo, Weather by CustomWeather, © 2015

Note: Actual official high and low records may vary slightly from our data, if they occured in-between our weather recording intervals... More about our weather records

Advertising

Aleppo weather history for previous 24 hours

 ConditionsComfort  
Time TempWeatherWind HumidityBarometerVisibility
11:00 AM
Mon, Mar 30
66 °FPassing clouds.14 mph53%29.85 "Hg9 mi
10:00 AM67 °FScattered clouds.7 mph45%29.84 "Hg9 mi
9:00 AM64 °FScattered clouds.2 mph50%29.83 "Hg9 mi
8:00 AM62 °FScattered clouds.1 mph44%29.83 "Hg9 mi
7:00 AM61 °FPassing clouds.1 mph49%29.82 "Hg9 mi
6:00 AM61 °FClear.2 mph59%29.80 "Hg9 mi
5:00 AM60 °FClear.3 mph71%29.80 "Hg9 mi
4:00 AM60 °FClear.1 mph69%29.80 "Hg9 mi
3:00 AM61 °FPassing clouds.1 mph61%29.81 "Hg9 mi
2:00 AM62 °FPassing clouds.6 mph59%29.83 "Hg9 mi
1:00 AM62 °FPassing clouds.2 mph57%29.83 "Hg9 mi
11:00 PM
Sun, Mar 29
61 °FPassing clouds.2 mph66%29.82 "Hg9 mi
10:00 PM61 °FPassing clouds.1 mph68%29.82 "Hg9 mi
9:00 PM61 °FPassing clouds.9 mph74%29.80 "Hg9 mi
8:00 PM65 °FPassing clouds.1 mph62%29.74 "Hg9 mi
7:00 PM67 °FPassing clouds.6 mph58%29.72 "Hg9 mi
6:00 PM71 °FScattered clouds.7 mph45%29.67 "Hg9 mi
5:00 PM67 °FSprinkles. Overcast.12 mph66%29.70 "Hg6 mi
4:00 PM68 °FPartly sunny.6 mph67%29.73 "Hg9 mi
3:00 PM69 °FPartly sunny.8 mph58%29.73 "Hg9 mi
2:00 PM75 °FPassing clouds.6 mph41%29.75 "Hg9 mi
1:00 PM69 °FPassing clouds.10 mph56%29.79 "Hg9 mi
Weather by CustomWeather, © 2015

See weather overviewHow to use our weather pages